, AK

(GMT )
Anchorage

Weather History for PANC - October, 2011

Change the Weather History Date:

Saturday, October 22, 2011

  Actual Average Record
Temperature  
Mean Temperature 36 °F 32 °F  
Max Temperature 39 °F 37 °F 52 °F (1957)
Min Temperature 32 °F 26 °F 4 °F (1956)
Degree Days  
Heating Degree Days 29    
Month to date heating degree days 581  
Since 1 July heating degree days 1577  
Cooling Degree Days 0    
Month to date cooling degree days 0  
Year to date cooling degree days 0  
Moisture  
Dew Point 28 °F    
Average Humidity 68    
Maximum Humidity 76    
Minimum Humidity 59    
Precipitation  
Precipitation T in 0.05 in 0.32 in (1964)
Month to date precipitation 0.91 1.61  
Year to date precipitation 11.39 13.89  
Snow  
Snow 0.00 in 0.30 in 3.30 in (1971)
Month to date snowfall T 4.9  
Since 1 June snowfall T  
Since 1 July snowfall T 5.3  
Since 1 September snowfall 5.3  
Snow Depth 0.00 in    
Sea Level Pressure  
Sea Level Pressure 29.47 in    
Wind  
Wind Speed 4 mph (North)    
Max Wind Speed 6 mph    
Max Gust Speed -    
Visibility 10 miles    
Events Rain    
T = Trace of Precipitation, MM = Missing Value Source: NWS Daily Summary

Daily Weather History Graph

Daily Weather History Graph

Search for Another Location

Airport or City:

Astronomy

Oct. 22, 2011 Rise Set
Actual Time 9:00 AM AKDT 6:27 PM AKDT
Civil Twilight 8:15 AM AKDT 7:12 PM AKDT
Nautical Twilight 7:25 AM AKDT 8:02 PM AKDT
Astronomical Twilight 6:35 AM AKDT 8:52 PM AKDT
Moon 2:55 AM AKDT (10/22) 4:52 PM AKDT (10/22)
Length of Visible Light 10h 56m
Length of Day
9h 26m
Waning Crescent, 22% of the Moon is Illuminated
Oct 22
Waning Crescent
Oct 26
New
Nov 2
First Quarter
Nov 10
Full
Nov 18
Last Quarter

Hourly Weather History & Observations

Time (AKDT) Temp. Windchill Dew Point Humidity Pressure Visibility Wind Dir Wind Speed Gust Speed Precip Events Conditions
12:53 AM 37.9 °F - 28.0 °F 68% 29.37 in 10.0 mi Calm Calm - 0.00 in Rain Light Rain
1:53 AM 37.9 °F 33.5 °F 28.0 °F 68% 29.38 in 10.0 mi Variable 5.8 mph - 0.00 in Rain Light Rain
2:53 AM 37.9 °F - 28.0 °F 68% 29.38 in 10.0 mi Calm Calm - 0.00 in   Overcast
3:53 AM 37.9 °F - 30.0 °F 73% 29.39 in 10.0 mi Calm Calm - N/A   Overcast
4:53 AM 37.9 °F 34.4 °F 30.0 °F 73% 29.40 in 10.0 mi NNE 4.6 mph - N/A   Mostly Cloudy
5:53 AM 36.0 °F 31.1 °F 28.9 °F 76% 29.41 in 10.0 mi ENE 5.8 mph - 0.00 in   Mostly Cloudy
6:53 AM 36.0 °F 33.3 °F 27.0 °F 70% 29.41 in 10.0 mi NE 3.5 mph - N/A   Mostly Cloudy
7:53 AM 37.0 °F 34.5 °F 26.1 °F 65% 29.42 in 10.0 mi Variable 3.5 mph - N/A   Mostly Cloudy
8:53 AM 33.1 °F - 27.0 °F 78% 29.43 in 10.0 mi Calm Calm - N/A   Mostly Cloudy
9:53 AM 35.1 °F 31.0 °F 26.1 °F 70% 29.44 in 10.0 mi NNW 4.6 mph - N/A   Overcast
10:53 AM 35.1 °F 32.2 °F 25.0 °F 67% 29.45 in 10.0 mi Variable 3.5 mph - N/A   Overcast
11:53 AM 37.0 °F 33.3 °F 26.1 °F 65% 29.46 in 10.0 mi North 4.6 mph - N/A   Mostly Cloudy
12:53 PM 37.9 °F 35.5 °F 26.1 °F 62% 29.47 in 10.0 mi Variable 3.5 mph - N/A   Mostly Cloudy
1:53 PM 39.0 °F 34.8 °F 26.1 °F 60% 29.48 in 10.0 mi NNE 5.8 mph - N/A   Overcast
2:53 PM 39.0 °F 34.8 °F 26.1 °F 60% 29.49 in 10.0 mi NNW 5.8 mph - N/A   Overcast
3:53 PM 39.9 °F 35.8 °F 25.0 °F 55% 29.49 in 10.0 mi North 5.8 mph - N/A   Overcast
4:53 PM 39.9 °F 36.7 °F 25.0 °F 55% 29.49 in 10.0 mi Variable 4.6 mph - N/A   Overcast
5:53 PM 39.0 °F 36.8 °F 26.1 °F 60% 29.50 in 10.0 mi NNE 3.5 mph - N/A   Overcast
6:53 PM 37.9 °F 34.4 °F 26.1 °F 62% 29.52 in 10.0 mi NNE 4.6 mph - N/A   Overcast
7:53 PM 39.0 °F - 25.0 °F 57% 29.53 in 10.0 mi Calm Calm - N/A   Overcast
8:53 PM 37.9 °F 34.4 °F 32.0 °F 79% 29.54 in 10.0 mi North 4.6 mph - N/A   Overcast
9:53 PM 37.9 °F 33.5 °F 32.0 °F 79% 29.56 in 10.0 mi NNW 5.8 mph - N/A   Overcast
10:53 PM 37.0 °F 33.3 °F 33.1 °F 86% 29.57 in 10.0 mi NNW 4.6 mph - N/A   Overcast
11:53 PM 37.0 °F 34.5 °F 33.1 °F 86% 29.58 in 10.0 mi NNW 3.5 mph - N/A   Overcast